Weather in Sheptaky

Ukraine / Chernihiv Region     52°04′01″N   33°07′21″E
В апреле 2022 года жителям России запретили посещать сайт meteo.paraplan.net по решению Генеральной прокуратуры. Аудитория сайта уменьшилась в 10 раз. Владельцы сайта не видят смысла в поддержке погодного сервера в таких условиях. Сайт будет закрыт в октябре.
temp.,
°C
wind,
m/s
gust,
m/s
humid.,
%
clouds,
%
prec.,
mm/h
press.,
hPa
HPBL,
m
30 september, fri
fri3000:00+10se498295 0.0 1012170
03:00+11sse41284100 0.1 1011253
06:00+11sse3794100 0.3 1012180
09:00+14sse489595 0.5 1012326
12:00+18ssw347450 0.0 1013804
15:00+20sw236297 0.0 10131258
18:00+17sse1175100 0.4 101411
21:00+16e1180100 0.4 101411
1 october, sat
sat100:00+14ssw2290100 0.7 101516
03:00+14ssw229499 1.5 101535
06:00+13ssw349521 0.3 101470
09:00+16ssw478699 0.8 1014265
12:00+17ssw61182100 0.0 1013638
15:00+17wsw71166100 0.0 10131029
18:00+14wsw51074100 0.0 1013666
21:00+13wsw488066 0.0 1013401
2 october, sun
sun200:00+12wsw258791 0.0 1012169
03:00+11wnw119396 0.0 101211
06:00+12e2389100 0.1 1010130
09:00+11ene3594100 0.9 1009256
12:00+11ne5795100 0.9 1007379
15:00+10n71196100 7.4 1005399
18:00+9n71395100 9.0 1003565
21:00+9nnw61296100 17.1 1003716
3 october, mon
mon300:00+8nw61194100 1.4 1003627
03:00+8nw61193100 1.4 1002553
06:00+8wnw51093100 0.0 1002613
09:00+8wnw61188100 0.0 1003720
12:00+10wnw7970100 0.0 10041167
15:00+10wnw4970100 0.1 10051159
18:00+10w51073100 0.1 1007509
21:00+8wsw51086100 0.3 1008354
4 october, tue
tue400:00+7sw499760 0.1 1009232
03:00+7sw499897 0.1 1010254
06:00+7sw5995100 0.1 1010449
09:00+8s5993100 0.1 1011491
12:00+10ssw588991 0.3 1011602
15:00+10sw5789100 1.7 1012683
18:00+9s379486 1.0 1013289
21:00+8sw249499 1.1 101486